Location: C�r?ule?ti
(46.3833°N, 22.8000°E)
Time: 21:29:32
(UTC+00:00)

Daily predictions for brighter satellites

Satellite Brightness Start Highest point End
(mag) Time Altitude Azimuth Time Altitude Azimuth Time Altitude Azimuth
SME Rocket 3.7 15:54:07 10° NNE 15:58:16 76° WNW 16:03:58 10° SSW
ARGOS 3.8 15:57:29 10° SE 16:02:16 34° ENE 16:07:07 10° N
CZ-2C R/B 4.1 15:57:03 10° S 16:02:47 61° W 16:08:30 10° NNW
Cosmos 2369 3.8 15:57:52 10° SSW 16:03:32 88° ESE 16:09:16 10° NNE
Cosmos 2263 Rocket 2.4 15:58:17 10° NNW 16:03:44 50° ENE 16:09:07 10° SE
Cosmos 724 4.5 15:58:08 10° NNW 16:04:00 54° NE 16:09:43 10° SE
Cosmos 1356 4.4 16:00:53 10° NNW 16:04:11 51° W 16:07:28 10° S
Cosmos 1980 Rocket 2.2 16:00:07 10° SSW 16:05:45 72° ESE 16:11:27 10° NNE
MOS 1-B 4.3 16:00:34 10° SSE 16:06:20 74° ENE 16:12:07 10° NNW
Cosmos 1821 Rocket 4.1 16:01:30 10° S 16:07:46 61° E 16:14:01 10° NNE
USA 215 3.7 16:01:41 10° NE 16:08:08 64° NNW 16:14:36 10° WSW
Cosmos 389 Rocket 2.4 16:05:56 10° S 16:09:19 90° SSE 16:12:46 10° N
Cosmos 1758 3.9 16:05:58 10° SSW 16:09:55 62° WNW 16:13:51 10° N
Meteor 1-21 Rocket 4.3 16:04:25 10° N 16:10:18 67° ENE 16:16:11 10° SSE
Cosmos 371 Rocket 4.3 16:08:48 10° SSE 16:12:47 26° E 16:16:47 10° NE
SKYMED 2 4.0 16:09:23 10° NNE 16:13:29 39° E 16:17:33 10° SSE
SMAP 4.0 16:11:21 10° S 16:15:54 55° W 16:20:30 10° NNW
Cosmos 1953 2.3 16:11:58 10° S 16:15:58 62° E 16:19:59 10° NNE
CZ-2D R/B 3.2 16:15:38 10° SSE 16:19:28 86° E 16:23:22 10° NNW
Cosmos 1269 Rocket 4.1 16:14:16 10° NNW 16:19:30 56° ENE 16:24:40 10° SE
Cosmos 1125 Rocket 3.9 16:15:12 10° SSW 16:20:26 69° WNW 16:25:41 10° NNE
YAOGAN 1 3.6 16:17:47 10° ESE 16:21:21 26° ENE 16:24:55 10° N
CZ-2C R/B 3.0 16:16:26 10° NNE 16:21:49 45° E 16:27:04 10° S
Cosmos 1455 Rocket 3.2 16:17:56 10° S 16:22:13 52° E 16:26:33 10° NNE
Cosmos 1697 Rocket 3.7 16:16:47 10° SW 16:22:15 49° WNW 16:27:45 10° NNE
SL-8 R/B 3.9 16:19:00 10° SW 16:23:42 61° SSE 16:27:49 14° ENE
Cosmos 1934 Rocket 4.2 16:18:44 10° SSE 16:24:27 44° E 16:30:08 10° NNE
H-2A R/B 3.2 16:20:57 10° SE 16:24:48 33° ENE 16:28:34 10° N
H-2A R/B 3.5 16:23:41 10° NE 16:26:16 16° E 16:28:51 10° SE
CZ-4 R/B 2.2 16:28:01 10° SE 16:31:31 30° ENE 16:35:06 10° N
ATLAS 3B R/B 3.6 16:25:16 10° WSW 16:31:35 46° NW 16:38:13 10° NNE
Okean O Rocket 1.5 16:31:18 10° SSE 16:35:37 77° ENE 16:39:59 10° N
Cosmos 1908 3.6 16:32:11 10° SSW 16:36:01 67° W 16:39:53 10° N
Tiangong 2.6 16:33:18 10° SW 16:36:02 25° SSE 16:37:44 16° ESE
Cosmos 1544 Rocket 3.9 16:32:00 10° SSE 16:36:13 42° E 16:40:27 10° NNE
CZ-4 R/B 4.4 16:32:41 10° SSE 16:36:47 64° ENE 16:40:53 10° N
Cosmos 1844 Rocket 3.8 16:32:42 10° N 16:37:13 24° NE 16:39:57 17° E
SL-19 R/B 4.4 16:33:41 10° NNE 16:39:28 86° WNW 16:45:01 10° SSW
USA 267 4.1 16:36:38 10° SSE 16:42:58 50° SW 16:49:18 10° WNW
SL-08 RB Rocket 3.9 16:39:50 10° SE 16:44:13 50° ENE 16:48:40 10° N
Cosmos 2123 Rocket 4.0 16:38:54 10° N 16:45:15 69° E 16:51:31 10° SSE
Cosmos 2278 3.9 16:39:40 10° SSW 16:45:21 77° WNW 16:51:05 10° NNE
NOSS 2-3 (D) 4.1 16:47:02 10° S 16:50:41 34° ESE 16:52:36 23° ENE
Meteor 1-4 Rocket 3.5 16:48:51 10° SSE 16:51:14 26° ESE 16:51:14 26° ESE
Okean-O 3.4 16:51:28 21° ESE 16:53:26 31° ENE 16:57:21 10° N
Okean 1-7 Rocket 3.5 16:49:36 10° N 16:54:02 77° E 16:58:28 10° SSE
IRAS Rocket 4.3 16:48:38 10° NNE 16:54:06 54° ESE 16:59:29 10° S
Feng Yun 1-1 Rocket 4.2 16:50:20 10° SSE 16:55:51 74° ENE 17:01:34 10° NNW
NOSS 3-1 (C) 3.3 16:50:58 10° SSW 16:55:58 50° ESE 17:00:53 14° NE
Landsat 5 3.7 16:53:29 10° NNE 16:57:53 79° WNW 17:02:22 10° SSW
CZ-2C R/B 3.3 16:56:44 10° SSW 16:58:16 12° S 16:59:46 10° SSE
HJ-1C 3.6 16:58:01 34° ESE 16:58:49 42° ENE 17:01:56 10° N
SL-16 R/B 2.3 16:54:04 10° S 16:59:34 55° ESE 17:05:07 10° NE
Cosmos 1602 Rocket 3.8 16:56:12 10° N 17:00:22 42° ENE 17:03:14 18° SE
COSMO-SKYMED 1 3.0 16:57:19 10° N 17:01:38 66° WNW 17:05:56 10° SSW
NOSS 2-3 (C) 3.7 16:59:24 10° SSW 17:03:15 47° ESE 17:05:07 29° ENE
Meteor 2-10 Rocket 3.8 17:01:43 10° SSE 17:07:04 47° E 17:12:14 10° NNE
Cosmos 2344 4.3 17:00:39 10° NW 17:09:29 64° NE 17:18:58 18° ESE
ATLAS 5 CENTAUR R/B 2.6 17:06:10 10° WSW 17:09:53 41° NW 17:13:52 11° NNE
Cosmos 304 Rocket 3.8 17:08:07 10° S 17:12:44 51° ESE 17:16:16 17° NE
Cosmos 1300 2.8 17:09:12 10° SSW 17:12:59 76° W 17:16:49 10° N
Cosmos 839 Rocket 4.2 17:05:55 10° NNW 17:13:45 74° NE 17:18:21 21° SE
Cosmos 2322 Rocket 2.2 17:08:34 10° S 17:14:00 54° ESE 17:18:57 13° NE
Cosmos 1408 4.1 17:16:09 10° N 17:17:47 23° NNE 17:17:47 23° NNE
Cosmos 1844 4.2 17:14:23 10° NNW 17:19:50 40° NE 17:21:05 35° E
CZ-4C R/B 4.1 17:17:32 10° N 17:20:47 43° WNW 17:23:56 10° SW
Lacrosse 4 Rocket 1.4 17:17:42 10° NNW 17:21:59 62° NE 17:22:49 51° ESE
Meteor 1-11 4.4 17:16:58 10° NNW 17:22:35 74° W 17:28:11 10° S
Cosmos 332 Rocket 3.7 17:20:19 10° S 17:25:11 68° ESE 17:28:59 17° NNE
Cosmos 2360 Rocket 2.5 17:20:38 10° S 17:25:52 41° ESE 17:26:16 40° E
SWARM C 4.5 17:25:05 10° S 17:28:22 81° W 17:31:42 10° N
SWARM A 4.2 17:25:16 10° S 17:28:33 81° W 17:31:53 10° N
Cosmos 1758 Rocket 3.5 17:25:07 10° N 17:29:10 55° ENE 17:29:10 55° ENE
DMSP B5D2-2 3.9 17:26:42 10° NNE 17:31:59 78° ESE 17:37:13 10° S
Cosmos 614 Rocket 3.8 17:28:30 10° NNW 17:33:35 70° ENE 17:34:56 47° SE
Cosmos 1605 Rocket 4.0 17:27:31 10° S 17:33:48 89° WNW 17:40:12 10° N
X-37B 1.5 17:31:14 10° W 17:33:45 44° SW 17:33:45 44° SW
H-2A R/B 4.2 17:30:29 10° SSW 17:35:03 28° W 17:39:41 10° NW
Iridium 4 Rocket 4.5 17:30:57 10° NNW 17:35:16 43° W 17:39:55 10° SSW
Cosmos 1626 Rocket 4.2 17:32:17 10° NNW 17:36:31 55° W 17:40:43 10° S
Cosmos 1447 Rocket 4.3 17:36:45 10° N 17:42:56 85° E 17:49:05 10° S
In-Cosmos 22 Rocket 4.0 17:38:04 10° N 17:43:26 90° W 17:46:37 25° S
Cosmos 2263 Rocket 4.2 17:42:45 10° NW 17:47:20 27° WSW 17:51:54 10° SSW
Cosmos 1153 Rocket 4.4 17:43:00 10° S 17:49:22 78° E 17:55:48 10° N
MetOp-A 4.1 17:47:07 28° SSE 17:50:05 86° WSW 17:55:29 10° NNW
Cosmos 1980 Rocket 4.4 17:45:52 10° W 17:50:20 23° NW 17:54:52 10° N
USA 215 4.3 17:47:07 22° NE 17:50:31 37° N 17:56:25 10° WNW
CSL-04 Debris 4.1 17:49:52 35° SSE 17:52:15 87° WSW 17:57:43 10° NNW
Cosmos 371 Rocket 4.5 17:48:22 10° SW 17:52:58 42° WNW 17:57:37 10° N
NOSS 2-3 (E) 3.8 17:49:36 10° SW 17:53:36 63° NW 17:54:10 57° N
YAOGAN 1 4.1 17:53:21 10° SSW 17:57:19 34° W 18:01:17 10° NNW
USA 229 DEB 3.4 17:51:35 10° SSW 17:57:54 75° SE 17:59:47 49° NE
USA 229 3.4 17:51:41 10° SSW 17:58:01 75° SE 17:59:48 50° NE
H-2A R/B 2.8 17:58:31 10° N 18:02:31 50° WNW 18:06:32 10° SW
Cosmos 1892 4.2 18:01:02 10° NNW 18:03:25 33° NW 18:03:25 33° NW
SL-8 R/B 4.0 18:01:29 10° W 18:05:47 64° NW 18:05:47 64° NW
CZ-4 R/B 3.5 18:03:08 10° SSW 18:06:30 25° W 18:09:55 10° NW
CSL-04 Rocket 3.8 18:05:17 43° S 18:07:08 74° WSW 18:12:44 10° NNW
Cosmos 2237 4.3 18:03:47 10° SSW 18:09:30 75° WNW 18:11:49 38° NNE
Tiangong 4.3 18:09:34 10° WSW 18:09:58 12° WSW 18:09:58 12° WSW
Cosmos 2251 Rocket 4.1 18:14:14 10° NNW 18:19:19 52° WSW 18:20:00 48° SW
NOSS 3-1 (A) 3.2 18:14:59 10° SW 18:20:11 77° WNW 18:20:11 77° WNW
Cosmos 1844 Rocket 2.9 18:16:04 10° NNW 18:21:35 65° WSW 18:21:39 65° WSW
Cosmos 1932 4.5 18:22:47 10° NW 18:28:54 74° WSW 18:28:54 74° WSW
Okean-O 4.4 18:29:03 27° WSW 18:29:53 29° W 18:33:47 10° NW
Cosmos 407 Rocket 4.4 18:26:46 10° NNW 18:30:24 45° NNW 18:30:24 45° NNW
Cosmos 2278 Rocket 4.0 18:32:55 10° NNW 18:35:14 22° N 18:35:14 22° N
SL-16 R/B 4.0 18:39:07 10° WSW 18:44:00 29° NW 18:48:40 11° N
CENTAUR R/B 4.1 18:39:11 10° NW 18:45:53 32° NNE 18:45:53 32° NNE
ATLAS 5 CENTAUR R/B 4.4 18:53:45 10° NW 18:55:23 13° NNW 18:55:23 13° NNW
Cosmos 2322 Rocket 3.9 18:53:33 10° WSW 18:58:21 29° NW 19:00:50 21° N
Lacrosse 4 Rocket 4.3 18:57:32 10° WNW 18:59:08 15° W 18:59:08 15° W
Cosmos 2360 Rocket 3.8 19:04:45 10° WSW 19:08:09 29° W 19:08:09 29° W
